User: anonymous   Login
Location: Alfords
(31.4624°N, 83.9238°W)
Time: 12:11:56
(UTC+00:00)
Language:

Tiangong - Orbit

View from above orbital plane
View from above orbital plane
View from above satellite
View from above satellite

Ground track
Ground track

The orbit data is extracted from the following two-line orbital elements,

1 48274U 21035A   21294.12377596  .00011999  00000-0  13951-3 0  9995
2 48274  41.4698 235.0266 0002074 266.2770 215.4819 15.61562818 27390
Epoch (UTC): 21 October 2021 02:58:14
Eccentricity: 0.0002074
inclination: 41.4698°
perigee height: 382 km
apogee height: 384 km
right ascension of ascending node: 235.0266°
argument of perigee: 266.2770°
revolutions per day: 15.61562818
mean anomaly at epoch: 215.4819°
orbit number at epoch: 2739

The dashed part of the orbit path shows where the satellite is in the earth's shadow,  

DLR